"Sample Date","Sample Time","Sample Value","Units","Flow Rate","Laser Status","Micron Size 0","Counts/Channel 0","Micron Size 1","Counts/Channel 1","Micron Size 2","Counts/Channel 2","Micron Size 3","Counts/Channel 3","Micron Size 4","Counts/Channel 4","Micron Size 5","Counts/Channel 5","Micron Size 6","Counts/Channel 6","Micron Size 7","Counts/Channel 7","Micron Size 8","Counts/Channel 8","Micron Size 9","Counts/Channel 9","Micron Size 10","Counts/Channel 10","Micron Size 11","Counts/Channel 11","Micron Size 12","Counts/Channel 12","Micron Size 13","Counts/Channel 13","Micron Size 14","Counts/Channel 14","Micron Size 15","Counts/Channel 15","Micron Size 16","Counts/Channel 16","Micron Size 17","Counts/Channel 17","Micron Size 18","Counts/Channel 18","Micron Size 19","Counts/Channel 19","Micron Size 20","Counts/Channel 20","Micron Size 21","Counts/Channel 21","Micron Size 22","Counts/Channel 22","Micron Size 23","Counts/Channel 23","Micron Size 24","Counts/Channel 24","Micron Size 25","Counts/Channel 25","Micron Size 26","Counts/Channel 26","Micron Size 27","Counts/Channel 27","Micron Size 28","Counts/Channel 28","Micron Size 29","Counts/Channel 29","Micron Size 30","Counts/Channel 30","Micron Size 31","Counts/Channel 31"
"05/08/07","10:00:05",540948.000,"cf",1.000,1,0.100,337797.000,0.200,144039.000,0.300,31270.000,0.500,17947.000,1.000,9885.000,5.000,10.000
"05/08/07","10:01:05",540291.000,"cf",1.000,1,0.100,337600.000,0.200,143633.000,0.300,31127.000,0.500,18032.000,1.000,9893.000,5.000,6.000
"05/08/07","10:02:05",539685.000,"cf",1.000,1,0.100,338199.000,0.200,142577.000,0.300,31100.000,0.500,17702.000,1.000,10099.000,5.000,8.000
"05/08/07","10:03:05",537756.000,"cf",1.000,1,0.100,338138.000,0.200,141349.000,0.300,30568.000,0.500,17783.000,1.000,9912.000,5.000,6.000
"05/08/07","10:04:05",539787.000,"cf",1.000,1,0.100,340245.000,0.200,141305.000,0.300,30592.000,0.500,17690.000,1.000,9949.000,5.000,6.000
"05/08/07","10:05:05",539839.000,"cf",1.000,1,0.100,340995.000,0.200,141068.000,0.300,30437.000,0.500,17511.000,1.000,9825.000,5.000,3.000
"05/08/07","10:06:05",540570.000,"cf",1.000,1,0.100,341453.000,0.200,140871.000,0.300,30641.000,0.500,17705.000,1.000,9894.000,5.000,6.000
"05/08/07","10:07:05",544011.000,"cf",1.000,1,0.100,343002.000,0.200,141871.000,0.300,31155.000,0.500,17966.000,1.000,10007.000,5.000,10.000
"05/08/07","10:08:05",542196.000,"cf",1.000,1,0.100,343049.000,0.200,140532.000,0.300,30704.000,0.500,17902.000,1.000,10003.000,5.000,6.000
"05/08/07","10:09:05",545033.000,"cf",1.000,1,0.100,343765.000,0.200,142197.000,0.300,31490.000,0.500,17813.000,1.000,9766.000,5.000,2.000
"05/08/07","10:10:05",546310.000,"cf",1.000,1,0.100,344650.000,0.200,142354.000,0.300,31014.000,0.500,18284.000,1.000,10005.000,5.000,3.000
"05/08/07","10:11:05",547297.000,"cf",1.000,1,0.100,344783.000,0.200,142838.000,0.300,31603.000,0.500,18026.000,1.000,10043.000,5.000,4.000
"05/08/07","10:12:05",548790.000,"cf",1.000,1,0.100,345800.000,0.200,143585.000,0.300,31755.000,0.500,17630.000,1.000,10011.000,5.000,9.000
"05/08/07","10:13:05",548507.000,"cf",1.000,1,0.100,344725.000,0.200,143913.000,0.300,31844.000,0.500,18027.000,1.000,9993.000,5.000,5.000
"05/08/07","10:14:05",551151.000,"cf",1.000,1,0.100,344959.000,0.200,145238.000,0.300,32345.000,0.500,18130.000,1.000,10476.000,5.000,3.000
"05/08/07","10:15:05",548697.000,"cf",1.000,1,0.100,341907.000,0.200,145113.000,0.300,32590.000,0.500,18503.000,1.000,10575.000,5.000,9.000
"05/08/07","10:16:05",544297.000,"cf",1.000,1,0.100,341042.000,0.200,143222.000,0.300,31571.000,0.500,18362.000,1.000,10095.000,5.000,5.000
"05/08/07","10:17:05",543465.000,"cf",1.000,1,0.100,340099.000,0.200,143348.000,0.300,31706.000,0.500,18090.000,1.000,10214.000,5.000,8.000
"05/08/07","10:18:05",544870.000,"cf",1.000,1,0.100,341305.000,0.200,143370.000,0.300,31735.000,0.500,18309.000,1.000,10146.000,5.000,5.000
"05/08/07","10:19:05",540592.000,"cf",1.000,1,0.100,340627.000,0.200,140469.000,0.300,31181.000,0.500,18111.000,1.000,10197.000,5.000,7.000
"05/08/07","10:20:05",541851.000,"cf",1.000,1,0.100,341667.000,0.200,140710.000,0.300,31261.000,0.500,18140.000,1.000,10062.000,5.000,11.000
"05/08/07","10:21:05",543814.000,"cf",1.000,1,0.100,342549.000,0.200,141360.000,0.300,31714.000,0.500,18167.000,1.000,10020.000,5.000,4.000
"05/08/07","10:22:05",540896.000,"cf",1.000,1,0.100,341187.000,0.200,140517.000,0.300,31125.000,0.500,18010.000,1.000,10051.000,5.000,6.000
"05/08/07","10:23:05",541281.000,"cf",1.000,1,0.100,341064.000,0.200,141228.000,0.300,31194.000,0.500,17821.000,1.000,9967.000,5.000,7.000
"05/08/07","10:24:05",539572.000,"cf",1.000,1,0.100,342724.000,0.200,138302.000,0.300,30674.000,0.500,17957.000,1.000,9906.000,5.000,9.000
"05/08/07","10:25:05",543862.000,"cf",1.000,1,0.100,344058.000,0.200,140291.000,0.300,31662.000,0.500,18023.000,1.000,9822.000,5.000,6.000
"05/08/07","10:26:05",545583.000,"cf",1.000,1,0.100,345256.000,0.200,140833.000,0.300,31272.000,0.500,18067.000,1.000,10148.000,5.000,7.000
"05/08/07","10:27:05",544459.000,"cf",1.000,1,0.100,345552.000,0.200,139783.000,0.300,31273.000,0.500,18047.000,1.000,9799.000,5.000,5.000
"05/08/07","10:28:05",544322.000,"cf",1.000,1,0.100,344605.000,0.200,140145.000,0.300,31397.000,0.500,18257.000,1.000,9915.000,5.000,3.000
"05/08/07","10:29:55",544417.000,"cc",28310.340,1,0.100,344303.000,0.200,140227.000,0.300,31724.000,0.500,18010.000,1.000,10149.000,5.000,4.000
"05/08/07","10:30:11",54269.000,"cc",28135.318,1,0.100,34300.000,0.200,13886.000,0.300,3279.000,0.500,1854.000,1.000,950.000,5.000,0
"05/08/07","10:30:17",54611.000,"cc",28411.440,1,0.100,34523.000,0.200,14075.000,0.300,3176.000,0.500,1816.000,1.000,1021.000,5.000,0
"05/08/07","10:30:23",54363.000,"cc",28377.840,1,0.100,34357.000,0.200,14055.000,0.300,3119.000,0.500,1824.000,1.000,1008.000,5.000,0
"05/08/07","10:30:29",53679.000,"cc",28344.627,1,0.100,34014.000,0.200,13753.000,0.300,3084.000,0.500,1862.000,1.000,966.000,5.000,0
"05/08/07","10:30:35",54334.000,"cc",28304.607,1,0.100,34363.000,0.200,14079.000,0.300,3102.000,0.500,1813.000,1.000,977.000,5.000,0
"05/08/07","10:30:41",54668.000,"cc",28300.055,1,0.100,34619.000,0.200,14005.000,0.300,3223.000,0.500,1825.000,1.000,996.000,5.000,0
"05/08/07","10:30:47",54763.000,"cc",28317.553,1,0.100,34714.000,0.200,14047.000,0.300,3242.000,0.500,1784.000,1.000,975.000,5.000,1.000
"05/08/07","10:30:53",54276.000,"cc",28355.641,1,0.100,34114.000,0.200,14192.000,0.300,3246.000,0.500,1725.000,1.000,996.000,5.000,3.000
"05/08/07","10:30:59",54979.000,"cc",28266.654,1,0.100,34785.000,0.200,14216.000,0.300,3170.000,0.500,1843.000,1.000,965.000,5.000,0
"05/08/07","10:31:05",54858.000,"cc",28266.404,1,0.100,34268.000,0.200,14483.000,0.300,3279.000,0.500,1857.000,1.000,969.000,5.000,2.000
"05/08/07","10:31:11",54748.000,"cc",28362.260,1,0.100,34409.000,0.200,14253.000,0.300,3276.000,0.500,1802.000,1.000,1008.000,5.000,0
"05/08/07","10:31:17",54549.000,"cc",28310.258,1,0.100,34251.000,0.200,14278.000,0.300,3185.000,0.500,1820.000,1.000,1015.000,5.000,0
"05/08/07","10:31:23",54632.000,"cc",28329.662,1,0.100,34251.000,0.200,14371.000,0.300,3250.000,0.500,1780.000,1.000,979.000,5.000,1.000
"05/08/07","10:31:29",54773.000,"cc",28361.727,1,0.100,34249.000,0.200,14290.000,0.300,3281.000,0.500,1900.000,1.000,1053.000,5.000,0
"05/08/07","10:31:35",54864.000,"cc",28317.211,1,0.100,34235.000,0.200,14370.000,0.300,3311.000,0.500,1896.000,1.000,1052.000,5.000,0
"05/08/07","10:31:41",54665.000,"cc",28297.982,1,0.100,34148.000,0.200,14314.000,0.300,3290.000,0.500,1878.000,1.000,1034.000,5.000,1.000
"05/08/07","10:31:47",54511.000,"cc",28289.541,1,0.100,34175.000,0.200,14331.000,0.300,3140.000,0.500,1822.000,1.000,1043.000,5.000,0
"05/08/07","10:31:53",54660.000,"cc",28339.639,1,0.100,34461.000,0.200,14207.000,0.300,3197.000,0.500,1774.000,1.000,1021.000,5.000,0
"05/08/07","10:31:59",54805.000,"cc",28295.141,1,0.100,34381.000,0.200,14385.000,0.300,3220.000,0.500,1849.000,1.000,969.000,5.000,1.000
"05/08/07","10:32:05",54432.000,"cc",28343.256,1,0.100,34127.000,0.200,14302.000,0.300,3224.000,0.500,1776.000,1.000,1003.000,5.000,0
"05/08/07","10:32:11",54430.000,"cc",28317.572,1,0.100,34306.000,0.200,13979.000,0.300,3322.000,0.500,1838.000,1.000,984.000,5.000,1.000
"05/08/07","10:32:17",54288.000,"cc",28283.090,1,0.100,34022.000,0.200,14192.000,0.300,3228.000,0.500,1793.000,1.000,1052.000,5.000,1.000
"05/08/07","10:32:23",54388.000,"cc",28273.350,1,0.100,34107.000,0.200,14051.000,0.300,3273.000,0.500,1937.000,1.000,1019.000,5.000,1.000
"05/08/07","10:32:29",54670.000,"cc",28314.268,1,0.100,34188.000,0.200,14294.000,0.300,3271.000,0.500,1876.000,1.000,1040.000,5.000,1.000
"05/08/07","10:32:35",54677.000,"cc",28347.057,1,0.100,34374.000,0.200,14257.000,0.300,3208.000,0.500,1794.000,1.000,1044.000,5.000,0
"05/08/07","10:32:41",54215.000,"cc",28329.418,1,0.100,33907.000,0.200,14235.000,0.300,3256.000,0.500,1795.000,1.000,1021.000,5.000,1.000
"05/08/07","10:32:47",54169.000,"cc",28312.559,1,0.100,34024.000,0.200,13993.000,0.300,3273.000,0.500,1805.000,1.000,1074.000,5.000,0
"05/08/07","10:32:53",54515.000,"cc",28324.701,1,0.100,34241.000,0.200,14125.000,0.300,3268.000,0.500,1854.000,1.000,1027.000,5.000,0
"05/08/07","10:32:59",54038.000,"cc",28324.594,1,0.100,34015.000,0.200,13927.000,0.300,3225.000,0.500,1831.000,1.000,1039.000,5.000,1.000
"05/08/07","10:33:05",53921.000,"cc",28329.941,1,0.100,33837.000,0.200,14053.000,0.300,3137.000,0.500,1820.000,1.000,1074.000,5.000,0
"05/08/07","10:33:11",53615.000,"cc",28291.328,1,0.100,33671.000,0.200,13869.000,0.300,3203.000,0.500,1838.000,1.000,1034.000,5.000,0
"05/08/07","10:33:17",54220.000,"cc",28329.148,1,0.100,34188.000,0.200,13937.000,0.300,3272.000,0.500,1818.000,1.000,1004.000,5.000,1.000
"05/08/07","10:33:23",54032.000,"cc",28336.492,1,0.100,33999.000,0.200,14068.000,0.300,3185.000,0.500,1761.000,1.000,1019.000,5.000,0
"05/08/07","10:33:29",54157.000,"cc",28292.135,1,0.100,34026.000,0.200,14191.000,0.300,3109.000,0.500,1816.000,1.000,1012.000,5.000,3.000
"05/08/07","10:33:35",54360.000,"cc",28318.217,1,0.100,34137.000,0.200,14098.000,0.300,3282.000,0.500,1848.000,1.000,995.000,5.000,0
"05/08/07","10:33:41",54044.000,"cc",28296.051,1,0.100,33942.000,0.200,14164.000,0.300,3106.000,0.500,1833.000,1.000,999.000,5.000,0
"05/08/07","10:33:47",53939.000,"cc",28324.063,1,0.100,34130.000,0.200,13836.000,0.300,3229.000,0.500,1711.000,1.000,1031.000,5.000,2.000
"05/08/07","10:33:53",54078.000,"cc",28336.879,1,0.100,34097.000,0.200,13995.000,0.300,3176.000,0.500,1844.000,1.000,964.000,5.000,2.000
"05/08/07","10:33:59",54079.000,"cc",28288.279,1,0.100,34148.000,0.200,13956.000,0.300,3200.000,0.500,1797.000,1.000,978.000,5.000,0
"05/08/07","10:34:05",54389.000,"cc",28316.963,1,0.100,34508.000,0.200,14093.000,0.300,3056.000,0.500,1774.000,1.000,956.000,5.000,2.000
"05/08/07","10:34:11",53974.000,"cc",28361.156,1,0.100,34001.000,0.200,13993.000,0.300,3144.000,0.500,1811.000,1.000,1025.000,5.000,0
"05/08/07","10:34:17",54051.000,"cc",28265.047,1,0.100,34269.000,0.200,13819.000,0.300,3203.000,0.500,1797.000,1.000,963.000,5.000,0
"05/08/07","10:34:23",53617.000,"cc",28342.354,1,0.100,34268.000,0.200,13674.000,0.300,2963.000,0.500,1731.000,1.000,980.000,5.000,1.000
"05/08/07","10:34:29",53654.000,"cc",28321.010,1,0.100,34016.000,0.200,13830.000,0.300,3036.000,0.500,1794.000,1.000,978.000,5.000,0
"05/08/07","10:34:35",53782.000,"cc",28309.295,1,0.100,34095.000,0.200,13706.000,0.300,3107.000,0.500,1862.000,1.000,1012.000,5.000,0
"05/08/07","10:34:41",54501.000,"cc",28309.147,1,0.100,34371.000,0.200,13960.000,0.300,3203.000,0.500,1892.000,1.000,1075.000,5.000,0
"05/08/07","10:34:47",53831.000,"cc",28290.025,1,0.100,34145.000,0.200,13842.000,0.300,3060.000,0.500,1831.000,1.000,953.000,5.000,0
"05/08/07","10:34:53",54222.000,"cc",28369.022,1,0.100,34316.000,0.200,13996.000,0.300,3159.000,0.500,1799.000,1.000,952.000,5.000,0
"05/08/07","10:34:59",53780.000,"cc",28332.193,1,0.100,33858.000,0.200,13879.000,0.300,3101.000,0.500,1930.000,1.000,1012.000,5.000,0
"05/08/07","10:35:05",53589.000,"cc",28295.465,1,0.100,33799.000,0.200,13820.000,0.300,3168.000,0.500,1790.000,1.000,1012.000,5.000,0
"05/08/07","10:35:11",53526.000,"cc",28290.106,1,0.100,33806.000,0.200,13903.000,0.300,3104.000,0.500,1786.000,1.000,927.000,5.000,0
"05/08/07","10:35:17",54267.000,"cc",28343.451,1,0.100,34249.000,0.200,14161.000,0.300,3107.000,0.500,1822.000,1.000,927.000,5.000,1.000
"05/08/07","10:35:23",53639.000,"cc",28329.441,1,0.100,33878.000,0.200,13858.000,0.300,3131.000,0.500,1835.000,1.000,936.000,5.000,1.000
"05/08/07","10:35:29",53897.000,"cc",28343.969,1,0.100,33793.000,0.200,14217.000,0.300,3094.000,0.500,1806.000,1.000,986.000,5.000,1.000
"05/08/07","10:35:35",53541.000,"cc",28284.732,1,0.100,33808.000,0.200,13980.000,0.300,3042.000,0.500,1771.000,1.000,940.000,5.000,0
"05/08/07","10:35:41",53847.000,"cc",28282.772,1,0.100,34222.000,0.200,13754.000,0.300,3045.000,0.500,1793.000,1.000,1033.000,5.000,0
"05/08/07","10:35:47",54148.000,"cc",28303.184,1,0.100,34338.000,0.200,13847.000,0.300,3165.000,0.500,1821.000,1.000,977.000,5.000,0
"05/08/07","10:35:53",54052.000,"cc",28309.967,1,0.100,34228.000,0.200,13751.000,0.300,3238.000,0.500,1879.000,1.000,955.000,5.000,1.000
"05/08/07","10:35:59",53581.000,"cc",28329.346,1,0.100,33891.000,0.200,13867.000,0.300,3129.000,0.500,1789.000,1.000,904.000,5.000,1.000
"05/08/07","10:36:05",54029.000,"cc",28368.666,1,0.100,34161.000,0.200,14070.000,0.300,3079.000,0.500,1738.000,1.000,981.000,5.000,0
"05/08/07","10:36:11",53214.000,"cc",28362.582,1,0.100,33690.000,0.200,13642.000,0.300,3129.000,0.500,1794.000,1.000,958.000,5.000,1.000
"05/08/07","10:36:17",53519.000,"cc",28284.039,1,0.100,33640.000,0.200,13943.000,0.300,3130.000,0.500,1807.000,1.000,999.000,5.000,0
"05/08/07","10:36:23",53690.000,"cc",28317.125,1,0.100,34063.000,0.200,13671.000,0.300,3133.000,0.500,1853.000,1.000,970.000,5.000,0
"05/08/07","10:36:29",53347.000,"cc",28358.346,1,0.100,33672.000,0.200,13734.000,0.300,3120.000,0.500,1829.000,1.000,992.000,5.000,0
"05/08/07","10:36:35",53567.000,"cc",28290.307,1,0.100,34009.000,0.200,13814.000,0.300,3015.000,0.500,1797.000,1.000,931.000,5.000,1.000
"05/08/07","10:36:41",53623.000,"cc",28278.760,1,0.100,34110.000,0.200,13689.000,0.300,3032.000,0.500,1786.000,1.000,1005.000,5.000,1.000
"05/08/07","10:36:47",53807.000,"cc",28354.434,1,0.100,34300.000,0.200,13751.000,0.300,2993.000,0.500,1777.000,1.000,985.000,5.000,1.000
"05/08/07","10:36:53",53276.000,"cc",28340.440,1,0.100,33629.000,0.200,13741.000,0.300,3089.000,0.500,1798.000,1.000,1019.000,5.000,0
"05/08/07","10:36:59",54087.000,"cc",28321.941,1,0.100,34433.000,0.200,13850.000,0.300,3102.000,0.500,1724.000,1.000,978.000,5.000,0
"05/08/07","10:37:05",53385.000,"cc",28302.543,1,0.100,33809.000,0.200,13787.000,0.300,3131.000,0.500,1732.000,1.000,925.000,5.000,1.000
"05/08/07","10:37:11",53188.000,"cc",28336.746,1,0.100,33802.000,0.200,13625.000,0.300,3008.000,0.500,1795.000,1.000,955.000,5.000,3.000
"05/08/07","10:37:17",53628.000,"cc",28266.549,1,0.100,34017.000,0.200,13684.000,0.300,3123.000,0.500,1799.000,1.000,1005.000,5.000,0
"05/08/07","10:37:23",53991.000,"cc",28348.424,1,0.100,34117.000,0.200,13956.000,0.300,3097.000,0.500,1805.000,1.000,1014.000,5.000,2.000
"05/08/07","10:37:29",54116.000,"cc",28294.361,1,0.100,34149.000,0.200,14109.000,0.300,3107.000,0.500,1764.000,1.000,987.000,5.000,0
"05/08/07","10:37:35",53609.000,"cc",28305.309,1,0.100,33826.000,0.200,13960.000,0.300,3083.000,0.500,1789.000,1.000,951.000,5.000,0
"05/08/07","10:37:41",54163.000,"cc",28309.781,1,0.100,34358.000,0.200,13775.000,0.300,3203.000,0.500,1870.000,1.000,957.000,5.000,0
"05/08/07","10:37:47",53128.000,"cc",28333.063,1,0.100,33707.000,0.200,13639.000,0.300,3093.000,0.500,1698.000,1.000,991.000,5.000,0
"05/08/07","10:37:53",53718.000,"cc",28308.930,1,0.100,34141.000,0.200,13631.000,0.300,3139.000,0.500,1790.000,1.000,1017.000,5.000,0
"05/08/07","10:37:59",53350.000,"cc",28308.514,1,0.100,33653.000,0.200,13766.000,0.300,3108.000,0.500,1773.000,1.000,1050.000,5.000,0
"05/08/07","10:38:05",53317.000,"cc",28330.873,1,0.100,33821.000,0.200,13737.000,0.300,3043.000,0.500,1752.000,1.000,964.000,5.000,0
"05/08/07","10:38:11",53466.000,"cc",28370.455,1,0.100,33726.000,0.200,13775.000,0.300,3105.000,0.500,1824.000,1.000,1036.000,5.000,0
"05/08/07","10:38:17",53324.000,"cc",28317.965,1,0.100,33891.000,0.200,13717.000,0.300,3023.000,0.500,1787.000,1.000,906.000,5.000,0
"05/08/07","10:38:23",53694.000,"cc",28314.764,1,0.100,33973.000,0.200,13760.000,0.300,3187.000,0.500,1788.000,1.000,986.000,5.000,0
"05/08/07","10:38:29",53949.000,"cc",28263.594,1,0.100,34327.000,0.200,13853.000,0.300,3004.000,0.500,1782.000,1.000,983.000,5.000,0
"05/08/07","10:38:35",53206.000,"cc",28257.045,1,0.100,33683.000,0.200,13791.000,0.300,3012.000,0.500,1793.000,1.000,927.000,5.000,0
"05/08/07","10:38:41",53788.000,"cc",28296.637,1,0.100,34188.000,0.200,13805.000,0.300,3033.000,0.500,1756.000,1.000,1004.000,5.000,2.000
"05/08/07","10:38:47",53605.000,"cc",28361.139,1,0.100,33913.000,0.200,13738.000,0.300,3137.000,0.500,1825.000,1.000,992.000,5.000,0
"05/08/07","10:38:53",54089.000,"cc",28303.357,1,0.100,34051.000,0.200,14052.000,0.300,3124.000,0.500,1849.000,1.000,1013.000,5.000,0
"05/08/07","10:38:59",54030.000,"cc",28352.850,1,0.100,34123.000,0.200,13913.000,0.300,3205.000,0.500,1848.000,1.000,941.000,5.000,0
"05/08/07","10:39:05",53639.000,"cc",28329.213,1,0.100,34066.000,0.200,13672.000,0.300,3180.000,0.500,1751.000,1.000,970.000,5.000,0
"05/08/07","10:39:11",53611.000,"cc",28348.209,1,0.100,33900.000,0.200,13823.000,0.300,3112.000,0.500,1774.000,1.000,1001.000,5.000,1.000
"05/08/07","10:39:17",53870.000,"cc",28288.549,1,0.100,34138.000,0.200,13749.000,0.300,3166.000,0.500,1848.000,1.000,969.000,5.000,0
"05/08/07","10:39:23",53830.000,"cc",28309.190,1,0.100,33977.000,0.200,13911.000,0.300,3159.000,0.500,1827.000,1.000,955.000,5.000,1.000
"05/08/07","10:39:29",53462.000,"cc",28333.805,1,0.100,34005.000,0.200,13680.000,0.300,3122.000,0.500,1742.000,1.000,913.000,5.000,0
"05/08/07","10:39:35",53794.000,"cc",28300.953,1,0.100,34093.000,0.200,13782.000,0.300,3145.000,0.500,1775.000,1.000,998.000,5.000,1.000
"05/08/07","10:39:41",53864.000,"cc",28282.115,1,0.100,34307.000,0.200,13693.000,0.300,3041.000,0.500,1869.000,1.000,953.000,5.000,1.000
"05/08/07","10:39:47",53506.000,"cc",28313.541,1,0.100,33924.000,0.200,13657.000,0.300,3221.000,0.500,1810.000,1.000,894.000,5.000,0
"05/08/07","10:39:53",53535.000,"cc",28284.008,1,0.100,34145.000,0.200,13723.000,0.300,3012.000,0.500,1752.000,1.000,903.000,5.000,0
"05/08/07","10:39:59",53569.000,"cc",28298.797,1,0.100,33990.000,0.200,13619.000,0.300,3177.000,0.500,1798.000,1.000,983.000,5.000,2.000
"05/08/07","10:40:05",53469.000,"cc",28345.072,1,0.100,34112.000,0.200,13628.000,0.300,3048.000,0.500,1723.000,1.000,957.000,5.000,1.000
"05/08/07","10:40:11",53787.000,"cc",28327.527,1,0.100,34110.000,0.200,13701.000,0.300,3255.000,0.500,1768.000,1.000,951.000,5.000,2.000
"05/08/07","10:40:17",53766.000,"cc",28315.772,1,0.100,33995.000,0.200,13963.000,0.300,3089.000,0.500,1723.000,1.000,996.000,5.000,0
"05/08/07","10:40:23",53619.000,"cc",28322.623,1,0.100,33996.000,0.200,13760.000,0.300,3199.000,0.500,1729.000,1.000,935.000,5.000,0
"05/08/07","10:40:29",53577.000,"cc",28344.158,1,0.100,34007.000,0.200,13600.000,0.300,3155.000,0.500,1854.000,1.000,961.000,5.000,0
"05/08/07","10:40:35",54011.000,"cc",28315.106,1,0.100,34154.000,0.200,13843.000,0.300,3195.000,0.500,1855.000,1.000,964.000,5.000,0
"05/08/07","10:40:41",54286.000,"cc",28284.471,1,0.100,34328.000,0.200,13845.000,0.300,3261.000,0.500,1856.000,1.000,995.000,5.000,1.000
"05/08/07","10:40:47",54523.000,"cc",28289.805,1,0.100,34450.000,0.200,14065.000,0.300,3199.000,0.500,1836.000,1.000,973.000,5.000,0
"05/08/07","10:40:53",54320.000,"cc",28365.309,1,0.100,34364.000,0.200,13991.000,0.300,3210.000,0.500,1830.000,1.000,924.000,5.000,1.000
"05/08/07","10:40:59",53857.000,"cc",28313.666,1,0.100,34043.000,0.200,13857.000,0.300,3137.000,0.500,1814.000,1.000,1005.000,5.000,1.000
"05/08/07","10:41:05",53783.000,"cc",28290.709,1,0.100,33916.000,0.200,13970.000,0.300,3162.000,0.500,1781.000,1.000,953.000,5.000,1.000
"05/08/07","10:41:11",54479.000,"cc",28318.561,1,0.100,34541.000,0.200,13990.000,0.300,3138.000,0.500,1782.000,1.000,1028.000,5.000,0
"05/08/07","10:41:17",54148.000,"cc",28346.490,1,0.100,34395.000,0.200,13771.000,0.300,3182.000,0.500,1759.000,1.000,1040.000,5.000,1.000
"05/08/07","10:41:23",54137.000,"cc",28351.148,1,0.100,34354.000,0.200,14004.000,0.300,3076.000,0.500,1772.000,1.000,931.000,5.000,0
"05/08/07","10:41:29",53598.000,"cc",28297.830,1,0.100,34070.000,0.200,13869.000,0.300,2974.000,0.500,1744.000,1.000,940.000,5.000,1.000
"05/08/07","10:41:35",53793.000,"cc",28329.080,1,0.100,34119.000,0.200,13748.000,0.300,3177.000,0.500,1800.000,1.000,949.000,5.000,0
"05/08/07","10:41:41",54080.000,"cc",28339.410,1,0.100,34262.000,0.200,13876.000,0.300,3098.000,0.500,1863.000,1.000,980.000,5.000,1.000
"05/08/07","10:41:47",53562.000,"cc",28321.022,1,0.100,33921.000,0.200,13797.000,0.300,3092.000,0.500,1793.000,1.000,958.000,5.000,1.000
"05/08/07","10:41:53",54471.000,"cc",28307.871,1,0.100,34566.000,0.200,13895.000,0.300,3182.000,0.500,1837.000,1.000,991.000,5.000,0
"05/08/07","10:41:59",53787.000,"cc",28321.822,1,0.100,34060.000,0.200,13799.000,0.300,3185.000,0.500,1765.000,1.000,977.000,5.000,1.000
"05/08/07","10:42:05",54110.000,"cc",28317.106,1,0.100,34451.000,0.200,13675.000,0.300,3170.000,0.500,1795.000,1.000,1019.000,5.000,0
"05/08/07","10:42:11",53746.000,"cc",28323.629,1,0.100,34050.000,0.200,13794.000,0.300,3189.000,0.500,1776.000,1.000,937.000,5.000,0
"05/08/07","10:42:17",54239.000,"cc",28315.180,1,0.100,34327.000,0.200,14047.000,0.300,3089.000,0.500,1786.000,1.000,990.000,5.000,0
"05/08/07","10:42:23",54093.000,"cc",28317.125,1,0.100,34302.000,0.200,13782.000,0.300,3123.000,0.500,1893.000,1.000,991.000,5.000,2.000
"05/08/07","10:42:29",54095.000,"cc",28298.219,1,0.100,34238.000,0.200,13908.000,0.300,3206.000,0.500,1768.000,1.000,975.000,5.000,0
"05/08/07","10:42:35",54254.000,"cc",28313.943,1,0.100,34395.000,0.200,13835.000,0.300,3141.000,0.500,1843.000,1.000,1040.000,5.000,0
"05/08/07","10:42:41",54279.000,"cc",28316.611,1,0.100,34454.000,0.200,13930.000,0.300,3086.000,0.500,1822.000,1.000,987.000,5.000,0
"05/08/07","10:42:47",54191.000,"cc",28304.998,1,0.100,34344.000,0.200,13970.000,0.300,3114.000,0.500,1777.000,1.000,986.000,5.000,0
"05/08/07","10:42:53",54518.000,"cc",28340.029,1,0.100,34497.000,0.200,14011.000,0.300,3119.000,0.500,1873.000,1.000,1017.000,5.000,1.000
"05/08/07","10:42:59",54783.000,"cc",28358.607,1,0.100,34674.000,0.200,14059.000,0.300,3226.000,0.500,1819.000,1.000,1004.000,5.000,1.000
"05/08/07","10:43:05",54006.000,"cc",28316.004,1,0.100,34337.000,0.200,13727.000,0.300,3190.000,0.500,1810.000,1.000,942.000,5.000,0
"05/08/07","10:43:11",54587.000,"cc",28274.205,1,0.100,34723.000,0.200,13944.000,0.300,3064.000,0.500,1826.000,1.000,1028.000,5.000,2.000
"05/08/07","10:43:17",54055.000,"cc",28346.723,1,0.100,34369.000,0.200,13714.000,0.300,3181.000,0.500,1768.000,1.000,1022.000,5.000,1.000
"05/08/07","10:43:23",54879.000,"cc",28284.959,1,0.100,34654.000,0.200,14097.000,0.300,3255.000,0.500,1845.000,1.000,1027.000,5.000,1.000
"05/08/07","10:43:29",54155.000,"cc",28313.309,1,0.100,34481.000,0.200,13767.000,0.300,3220.000,0.500,1730.000,1.000,956.000,5.000,1.000
"05/08/07","10:43:35",54909.000,"cc",28378.623,1,0.100,34525.000,0.200,14246.000,0.300,3263.000,0.500,1887.000,1.000,988.000,5.000,0
"05/08/07","10:43:41",54880.000,"cc",28292.008,1,0.100,34623.000,0.200,14084.000,0.300,3306.000,0.500,1817.000,1.000,1050.000,5.000,0